WetterOnline ( http://www.wetteronline.de )

Wetter aktuell Paderborn

Aktuelles Wetter: Bad Lippspringe (158m)

6-stündlich | Neueste Meldungen
Ortszeit Temperatur Wetter
Mo, 16.07. 20:00 26.8° C wolkenlos
Mo, 16.07. 14:00 27.4° C wolkenlos
Mo, 16.07. 8:00 20.1° C wolkenlos
Mo, 16.07. 2:00 18.0° C wolkenlos
So, 15.07. 20:00 23.8° C wolkenlos
So, 15.07. 14:00 24.0° C wolkenlos
So, 15.07. 8:00 16.4° C wolkenlos
So, 15.07. 2:00 16.4° C wolkenlos
Ortszeit Temperatur Wetter
Di, 17.07. 0:00 16.4° C wolkig
Mo, 16.07. 23:50 16.4° C wolkig
Mo, 16.07. 23:40 16.4° C wolkig
Mo, 16.07. 23:30 16.8° C wolkig
Mo, 16.07. 23:20 16.8° C wolkig
Mo, 16.07. 23:10 16.9° C wolkig
Mo, 16.07. 23:00 17.4° C leicht bewölkt
Mo, 16.07. 22:30 18.0° C wolkig
Mo, 16.07. 22:00 19.2° C wolkig
Mo, 16.07. 21:30 21.7° C leicht bewölkt
Mo, 16.07. 21:00 24.3° C wolkenlos
Ortszeit Relative Feuchte Sichtweite
Mo, 16.07. 20:00 36% 30 km
Mo, 16.07. 14:00 34% 17 km
Mo, 16.07. 8:00 55% 6 km
Mo, 16.07. 2:00 60% 55 km
So, 15.07. 20:00 38% 40 km
So, 15.07. 14:00 34% 23 km
So, 15.07. 8:00 77% 23 km
So, 15.07. 2:00 71% 19 km
Ortszeit Relative Feuchte Sichtweite
Di, 17.07. 0:00 82% 22 km
Mo, 16.07. 23:50 82% -
Mo, 16.07. 23:40 82% -
Mo, 16.07. 23:30 82% 21 km
Mo, 16.07. 23:20 82% -
Mo, 16.07. 23:10 80% -
Mo, 16.07. 23:00 79% 25 km
Mo, 16.07. 22:30 78% 24 km
Mo, 16.07. 22:00 72% 27 km
Mo, 16.07. 21:30 57% 27 km
Mo, 16.07. 21:00 45% 22 km
Ortszeit Niederschlagsmenge Niederschlagsart
Mo, 16.07. 20:00 0.0 l/m2 in 12 Std. -
Mo, 16.07. 14:00 0.0 l/m2 in 6 Std. -
Mo, 16.07. 8:00 0.0 l/m2 in 12 Std. -
Mo, 16.07. 2:00 0.0 l/m2 in 6 Std. -
So, 15.07. 20:00 0.0 l/m2 in 12 Std. -
So, 15.07. 14:00 0.0 l/m2 in 6 Std. -
So, 15.07. 8:00 0.0 l/m2 in 12 Std. -
So, 15.07. 2:00 0.0 l/m2 in 6 Std. -
Ortszeit Niederschlagsmenge Niederschlagsart
Di, 17.07. 0:00 0.0 l/m2 in 1 Std. -
Mo, 16.07. 23:50 keine Meldung -
Mo, 16.07. 23:40 keine Meldung -
Mo, 16.07. 23:30 0.0 l/m2 in 1 Std. -
Mo, 16.07. 23:20 keine Meldung -
Mo, 16.07. 23:10 keine Meldung -
Mo, 16.07. 23:00 0.0 l/m2 in 1 Std. -
Mo, 16.07. 22:30 0.0 l/m2 in 1 Std. -
Mo, 16.07. 22:00 0.0 l/m2 in 1 Std. -
Mo, 16.07. 21:30 0.0 l/m2 in 1 Std. -
Mo, 16.07. 21:00 0.0 l/m2 in 1 Std. -
Ortszeit Stärke Spitze Richtung
km/h Bft. km/h Grad Sektor
Mo, 16.07. 20:00 13 3 28 20° N
Mo, 16.07. 14:00 4 1 32 360° N
Mo, 16.07. 8:00 20 4 31 90° O
Mo, 16.07. 2:00 15 3 20 80° O
So, 15.07. 20:00 13 3 26 50° NO
So, 15.07. 14:00 7 2 20 70° O
So, 15.07. 8:00 4 1 11 350° N
So, 15.07. 2:00 4 1 18 40° NO
Ortszeit Stärke Spitze Richtung
km/h Bft. km/h Grad Sektor
Di, 17.07. 0:00 0 0 11 - -
Mo, 16.07. 23:50 2 1 - 150° SO
Mo, 16.07. 23:40 4 1 - 140° SO
Mo, 16.07. 23:30 4 1 7 170° S
Mo, 16.07. 23:20 4 1 - 170° S
Mo, 16.07. 23:10 0 0 - 270° W
Mo, 16.07. 23:00 0 0 7 - -
Mo, 16.07. 22:30 4 1 7 10° N
Mo, 16.07. 22:00 4 1 11 30° NO
Mo, 16.07. 21:30 7 2 11 30° NO
Mo, 16.07. 21:00 9 2 19 20° N
Ortszeit Untergrenze Bedeckung Gattung
total tief tief mittel hoch
Mo, 16.07. 20:00 - 0/8 0/8 - - -
Mo, 16.07. 14:00 - 0/8 0/8 - - -
Mo, 16.07. 8:00 - 0/8 0/8 - - -
Mo, 16.07. 2:00 - 0/8 0/8 - - -
So, 15.07. 20:00 - 0/8 0/8 - - -
So, 15.07. 14:00 - 0/8 0/8 - - -
So, 15.07. 8:00 - 0/8 0/8 - - -
So, 15.07. 2:00 - 0/8 0/8 - - -
Ortszeit Bedeckungsgrad in Achtel und Wolkenuntergrenze
Di, 17.07. 0:00 8(7800m)
Mo, 16.07. 23:50 8(7800m)
Mo, 16.07. 23:40 7(7800m) 8(8700m)
Mo, 16.07. 23:30 8(8400m) 8(8400m)
Mo, 16.07. 23:20 8(8400m)
Mo, 16.07. 23:10 6(8100m) 7(8700m)
Mo, 16.07. 23:00 5(8400m) 5(9000m)
Mo, 16.07. 22:30 7(8400m)
Mo, 16.07. 22:00 7(8700m)
Mo, 16.07. 21:30 3(8700m)
Mo, 16.07. 21:00 keine Wolken
Ortszeit Luftdruck NN (hPa) Tendenz (hPa in 3 Std.)
Mo, 16.07. 20:00 1011 - 0,5
Mo, 16.07. 14:00 1013 - 1,0
Mo, 16.07. 8:00 1014 - 0,5
Mo, 16.07. 2:00 1016 - 0,1
So, 15.07. 20:00 1015 - 0,3
So, 15.07. 14:00 1017 - 1,0
So, 15.07. 8:00 1018 - 0,2
So, 15.07. 2:00 1019 0,0
Ortszeit Luftdruck NN (hPa) Tendenz (hPa in 3 Std.)
Di, 17.07. 0:00 1013 + 1,2
Mo, 16.07. 23:50 1013 keine Meldung
Mo, 16.07. 23:40 1013 keine Meldung
Mo, 16.07. 23:30 1013 + 1,3
Mo, 16.07. 23:20 1013 keine Meldung
Mo, 16.07. 23:10 1013 keine Meldung
Mo, 16.07. 23:00 1013 + 1,4
Mo, 16.07. 22:30 1013 + 1,3
Mo, 16.07. 22:00 1012 + 1,1
Mo, 16.07. 21:30 1012 + 0,8
Mo, 16.07. 21:00 1011 + 0,3
Ortszeit Schneehöhe (cm)
Mo, 16.07. 20:00 -
Mo, 16.07. 14:00 -
Mo, 16.07. 8:00 -
Mo, 16.07. 2:00 -
So, 15.07. 20:00 -
So, 15.07. 14:00 -
So, 15.07. 8:00 -
So, 15.07. 2:00 -
Ortszeit Schneehöhe (cm)
Di, 17.07. 0:00 -
Mo, 16.07. 23:50 -
Mo, 16.07. 23:40 -
Mo, 16.07. 23:30 -
Mo, 16.07. 23:20 -
Mo, 16.07. 23:10 -
Mo, 16.07. 23:00 -
Mo, 16.07. 22:30 -
Mo, 16.07. 22:00 -
Mo, 16.07. 21:30 -
Mo, 16.07. 21:00 -
Link zu dieser Seite / Seite empfehlen

Das Wetter in ...